Wind_Speed
11 8 8 10 11 12 12 12 11 11 11 10 10 10 9 10 11 11 13 12 8 6 9 8 8 8 9 10 8 7 7 7 7
10 8 7 7 9 9 10 10 10 9 9 10 10 10 10 11 10 10 9 6 6 9 10 7 4 3 5 7 7 6 6 5 5
10 8 7 6 6 6 7 7 7 7 7 7 8 8 8 7 6 5 5 6 9 10 11 9 6 2 1 2 3 3 2 1 0
8 7 5 5 4 4 4 3 3 2 3 4 5 5 5 4 4 4 5 7 8 9 10 10 8 6 2 4 6 6 6 6 6
6 7 6 5 3 2 2 1 0 1 2 3 3 4 3 3 4 4 5 6 7 9 10 10 9 7 6 4 5 8 9 10 6
6 6 6 5 4 2 1 2 3 3 3 3 3 3 3 4 4 5 6 8 8 9 11 11 10 9 8 6 6 6 6 8 7
6 6 6 5 4 4 4 5 6 6 6 6 6 6 6 6 7 7 8 9 11 10 11 13 12 11 11 9 7 6 6 6 6
6 6 6 6 6 6 6 7 7 8 9 8 8 9 9 9 9 9 10 10 11 13 12 12 13 13 11 11 10 8 7 6 5
6 6 7 7 7 7 7 8 8 8 9 10 11 11 11 11 11 11 12 12 13 13 15 13 13 13 13 12 11 10 9 8 7
7 7 6 6 6 6 7 7 8 8 9 11 12 13 13 12 13 13 13 13 14 14 15 16 15 14 14 14 13 12 10 9 8
6 6 7 7 6 6 6 7 7 8 9 10 12 13 13 14 14 14 14 15 15 15 15 17 17 16 16 15 15 13 12 11 10
6 7 7 7 8 9 9 9 9 9 10 10 11 12 13 14 15 16 17 16 16 15 15 16 18 18 17 17 17 16 15 13 12
9 10 9 8 10 11 12 12 13 13 13 13 14 14 15 16 17 19 19 20 19 18 17 16 17 19 20 18 17 15 18 16 14
14 15 13 12 13 15 16 16 17 18 19 19 20 19 19 20 21 22 23 23 23 22 21 21 20 19 20 21 18 16 18 20 19
17 17 17 18 19 20 20 20 21 23 24 25 25 25 25 25 26 25 25 26 26 26 25 25 25 23 21 21 22 19 18 21 23
20 21 21 21 22 22 21 23 24 25 23 26 28 28 26 27 26 25 22 18 20 22 24 27 28 27 24 23 22 23 21 20 24
24 24 24 24 24 24 26 26 26 26 25 25 27 25 22 23 21 14 15 16 20 21 22 21 22 23 23 24 24 24 24 23 22
26 26 27 27 27 26 26 26 27 27 25 24 22 12 13 16 20 19 18 20 20 20 22 20 19 18 21 22 23 25 26 26 25
24 24 24 25 26 27 26 24 25 24 24 22 20 20 21 14 13 12 15 18 20 17 19 19 21 21 22 21 21 21 25 28 28
25 26 27 27 27 27 26 25 25 24 23 21 20 19 19 19 19 21 15 15 17 19 19 17 17 19 21 21 21 21 22 24 26
Wind_Direction
126 122 93 76 76 86 93 96 96 92 91 85 86 86 83 83 103 99 86 80 76 39 25 30 42 46 51 60 59 70 73 88 102
133 135 113 93 84 95 97 98 98 98 90 85 87 86 92 93 99 88 80 70 3 359 5 19 54 58 53 56 65 70 66 96 111
159 152 137 117 96 103 109 110 108 108 101 93 91 88 91 92 83 59 25 351 344 350 357 9 18 340 178 95 75 95 116 138 96
164 163 149 126 97 68 67 65 57 60 79 95 102 97 87 68 41 31 15 2 357 358 360 5 6 359 318 257 249 237 227 244 274
163 157 165 161 143 108 86 116 349 338 2 2 11 26 20 2 360 348 346 351 357 360 3 2 6 3 347 314 269 258 252 253 263
190 189 186 192 195 203 234 261 266 278 295 297 301 311 310 307 314 324 327 331 345 354 357 358 357 359 355 341 324 310 293 292 297
223 230 231 230 235 243 246 255 267 277 284 293 298 292 289 289 295 310 316 322 331 344 348 353 352 351 350 344 334 322 312 307 304
246 251 254 252 254 256 253 257 261 266 276 287 295 299 291 285 289 304 311 315 321 326 334 340 345 345 342 337 332 325 314 308 298
252 255 257 257 258 262 262 260 263 266 272 282 291 296 296 293 287 293 306 310 311 315 319 326 333 335 335 331 326 320 313 303 288
257 256 254 256 265 274 275 274 270 269 272 279 287 290 292 294 293 292 297 302 302 307 309 316 319 324 327 327 322 315 305 292 283
265 258 251 254 265 274 281 284 284 286 288 288 291 293 295 295 294 296 297 300 298 299 304 305 309 313 317 319 318 312 304 288 276
267 266 263 260 262 272 284 293 296 298 295 297 293 297 296 295 294 293 293 293 297 296 296 300 301 303 305 308 310 309 307 292 277
274 275 273 274 271 274 278 282 287 292 296 299 298 294 290 290 291 290 289 288 289 290 291 290 291 293 296 297 297 287 295 302 293
273 275 276 275 275 275 278 282 287 290 291 290 287 287 287 288 287 286 286 288 283 282 288 291 289 285 285 287 281 274 278 281 291
270 273 274 273 275 278 279 284 285 286 287 287 286 285 286 288 287 283 285 284 286 288 290 290 286 285 282 285 279 271 270 275 282
270 272 274 276 277 280 278 280 283 285 287 288 289 289 288 287 287 298 297 297 283 282 283 284 283 282 280 277 279 273 270 265 269
270 273 274 276 279 279 278 276 279 279 285 285 288 286 292 291 290 292 291 292 289 294 292 290 289 287 282 279 276 276 267 265 259
269 271 272 273 274 274 273 271 271 276 276 277 277 277 281 289 289 285 287 285 290 295 295 288 291 281 285 279 272 266 266 262 257
266 267 270 272 272 273 274 271 271 272 274 279 276 274 278 285 289 280 276 285 286 282 283 282 285 285 279 276 276 273 263 264 260
267 270 271 272 272 272 270 266 265 269 270 272 275 273 272 278 280 282 282 281 296 288 286 282 279 281 279 277 273 271 266 267 261
Height
1583 1583 1583 1583 1583 1583 1584 1584 1585 1585 1586 1586 1586 1587 1587 1587 1588 1589 1588 1589 1589 1588 1588 1587 1586 1585 1584 1583 1583 1582 1581 1581 1580
1583 1583 1584 1584 1584 1585 1585 1586 1586 1587 1587 1587 1588 1588 1589 1589 1590 1590 1591 1591 1591 1589 1588 1588 1587 1586 1585 1584 1584 1583 1582 1582 1581
1583 1584 1585 1586 1586 1586 1586 1586 1587 1587 1588 1588 1589 1590 1590 1591 1591 1592 1592 1592 1590 1589 1588 1587 1586 1586 1585 1585 1585 1584 1583 1582 1581
1584 1585 1586 1587 1588 1588 1588 1588 1589 1589 1589 1589 1589 1590 1590 1591 1592 1592 1592 1592 1590 1589 1588 1587 1586 1585 1584 1584 1584 1583 1582 1582 1581
1584 1586 1587 1587 1587 1588 1588 1588 1589 1590 1590 1590 1591 1591 1591 1592 1592 1592 1592 1591 1590 1589 1588 1587 1586 1585 1583 1583 1583 1582 1581 1580 1579
1585 1585 1586 1587 1587 1588 1588 1588 1588 1589 1590 1590 1590 1590 1591 1591 1591 1591 1591 1590 1590 1589 1587 1586 1585 1584 1583 1582 1581 1580 1579 1578 1577
1585 1585 1585 1586 1587 1587 1588 1588 1588 1588 1588 1589 1589 1589 1590 1590 1590 1590 1590 1589 1588 1588 1587 1585 1584 1583 1582 1581 1580 1579 1578 1577 1576
1584 1584 1585 1585 1586 1586 1587 1588 1588 1587 1587 1587 1588 1588 1588 1589 1589 1589 1589 1588 1587 1586 1585 1584 1583 1582 1581 1580 1579 1578 1578 1577 1576
1582 1583 1583 1584 1584 1585 1585 1586 1586 1586 1586 1586 1586 1586 1586 1587 1587 1587 1587 1587 1586 1585 1584 1583 1582 1580 1579 1578 1578 1577 1576 1576 1575
1581 1581 1582 1582 1583 1583 1584 1584 1584 1584 1583 1583 1584 1584 1584 1584 1584 1585 1585 1584 1584 1583 1582 1581 1580 1578 1578 1577 1576 1575 1574 1574 1574
1579 1580 1580 1581 1582 1582 1582 1582 1582 1582 1581 1582 1581 1582 1582 1581 1581 1582 1582 1582 1581 1581 1580 1579 1577 1576 1575 1574 1573 1572 1571 1571 1572
1577 1578 1579 1580 1580 1580 1580 1580 1580 1580 1579 1579 1579 1579 1579 1579 1579 1579 1578 1578 1578 1577 1577 1576 1575 1573 1573 1572 1571 1570 1569 1569 1569
1575 1576 1577 1577 1577 1577 1577 1578 1577 1577 1577 1576 1577 1576 1576 1576 1575 1575 1574 1574 1574 1573 1573 1572 1572 1571 1570 1570 1569 1568 1565 1566 1566
1572 1573 1574 1574 1574 1574 1574 1574 1574 1573 1573 1573 1572 1572 1571 1571 1570 1570 1570 1569 1568 1568 1568 1568 1568 1567 1567 1566 1566 1566 1564 1563 1563
1569 1569 1569 1570 1570 1570 1570 1570 1569 1569 1568 1567 1566 1566 1566 1566 1566 1565 1565 1564 1563 1563 1562 1563 1562 1562 1562 1562 1561 1562 1562 1560 1559
1564 1564 1564 1565 1565 1565 1565 1564 1564 1563 1563 1561 1560 1559 1560 1560 1560 1560 1559 1558 1557 1557 1557 1556 1556 1556 1556 1556 1556 1556 1556 1557 1555
1559 1559 1559 1559 1558 1559 1559 1558 1558 1557 1559 1557 1555 1553 1553 1553 1554 1555 1555 1554 1553 1553 1552 1551 1550 1550 1549 1549 1550 1550 1551 1551 1552
1553 1553 1553 1553 1552 1552 1553 1552 1552 1551 1552 1552 1552 1549 1548 1547 1549 1549 1550 1549 1548 1547 1546 1545 1544 1544 1543 1543 1542 1542 1543 1544 1545
1547 1547 1547 1547 1546 1546 1547 1546 1546 1545 1545 1546 1546 1545 1544 1543 1543 1543 1545 1544 1543 1541 1540 1539 1538 1537 1536 1536 1535 1535 1536 1537 1538
1541 1541 1541 1541 1540 1540 1540 1540 1540 1540 1541 1540 1540 1541 1539 1539 1539 1538 1539 1538 1538 1537 1535 1534 1533 1531 1530 1529 1528 1528 1528 1528 1530